Regional Weather Roundup
Issued by NWS

Home | Current Version | Previous Version | Text Only | Print | Product List | Glossary On
Versions: 1 2 3 4 5 6 7 8 9 10 11 12 13 14 15 16 17 18 19 20 21 22 23 24 25 26 27 28 29 30 31 32 33 34 35 36 37 38 39 40 41 42 43 44 45 46 47 48 49 50
000
ASUS43 KMPX 180210
RWRMN
WEATHER ROUNDUP FOR MINNESOTA
NATIONAL WEATHER SERVICE TWIN CITIES/CHANHASSEN MN
900 PM CDT FRI APR 17 2015


NOTE: "FAIR" INDICATES FEW OR NO CLOUDS BELOW 12,000 FEET WITH NO
SIGNIFICANT WEATHER AND/OR OBSTRUCTIONS TO VISIBILITY. N/A MEANS
CURRENT SKY AND/OR WEATHER CONDITIONS ARE NOT AVAILABLE.

MNZ060>063-068>070-180300-
   Twin Cities Metro

CITY           SKY/WX    TMP DP  RH WIND       PRES   REMARKS
TWIN CITIES    PTCLDY    67  25  20 NW6       30.02R
ST PAUL        PTCLDY    66  27  23 NW6       30.02R
CRYSTAL        CLEAR     59  33  37 NW3       30.01S
LAKEVILLE      PTCLDY    61  34  36 CALM      30.02S
EDEN PRAIRIE   PTCLDY    66  27  23 N5        30.01S
SOUTH ST PAUL  PTCLDY    67  27  22 NW3       30.02R
LAKE ELMO      FAIR      59  32  36 CALM      30.03R
$$
MNZ001>005-007-008-013>017-022>024-027-028-180300-
   Northwest Minnesota

CITY           SKY/WX    TMP DP  RH WIND       PRES   REMARKS
BEMIDJI        CLEAR     56  24  28 N13G18    30.05R
HALLOCK        CLEAR     52  28  40 NE8       30.12R
ROSEAU         CLEAR     48  32  53 N9        30.11R
WARROAD        CLEAR     48  30  49 NW6       30.11R
THIEF RVR FALL CLEAR     55  27  33 N9        30.10R
CROOKSTON      CLEAR     55  21  26 NE8       30.09R
FOSSTON        CLEAR     48  16  27 N9        30.08R
DETROIT LAKES  PTCLDY    63  32  31 N5        30.05R
MOORHEAD       PTCLDY    63  25  23 N16       30.05R
PARK RAPIDS    PTCLDY    65  29  25 N17G24    30.03R
MAHNOMEN       FAIR      55  22  27 NE9       30.06R
$$
MNZ006-009>011-018-025>026-180300-
   North Central Minnesota

CITY           SKY/WX    TMP DP  RH WIND       PRES   REMARKS
BAUDETTE       CLEAR     46  29  51 N8        30.09R
FLAG ISLAND    CLEAR     46  32  57 NE15      30.11R
INTL FALLS     CLEAR     53  29  39 N14G23    30.07R
WASKISH        CLEAR     52  27  37 N3        30.08R
BIG FORK       CLEAR     57  19  23 N7        30.05R
LONGVILLE      CLEAR     63  28  27 N3        30.03R
GRAND RAPIDS   CLEAR     63  27  25 N13       30.03R
ORR            CLEAR     55  16  21 NW6       30.02R
COOK           CLEAR     57  19  23 N7        30.04R
WALKER         FAIR      59  26  28 N6        30.04R
$$
MNZ012-019>021-037-180300-
   Northeast Minnesota

CITY           SKY/WX    TMP DP  RH WIND       PRES   REMARKS
DULUTH         CLEAR     59  24  26 W8        29.99R
ELY            CLEAR     57  23  26 NW12G20   30.01R
HIBBING        CLEAR     61  26  26 N17G23    30.01R
EVELETH        CLEAR     63  27  25 NW14G20   30.02R
DULUTH HARBOR  CLEAR     64  28  25 W8        29.99R
TWO HARBORS    CLEAR     61  32  33 W5        29.96R
SILVER BAY     CLEAR     57  25  28 CALM      29.95R
GRAND MARAIS     N/A     44  33  65 CALM      29.95R
G MARAIS ARPRT CLEAR     55  21  26 NW12G25   29.97R
$$
MNZ029>031-032-039>041-046>048-054>057-064-180300-
   West Central Minnesota

CITY           SKY/WX    TMP DP  RH WIND       PRES   REMARKS
FERGUS FALLS   MOCLDY    61   7  11 W3        30.03S
WHEATON        PTCLDY    59  21  23 CALM      30.06R
MORRIS         CLEAR     61  21  21 W5        30.04S
ALEXANDRIA     MOCLDY    60  22  23 SW3       30.05S
ELBOW LAKE     FAIR      61  21  21 W3        30.04R
WADENA         MOCLDY    57  25  28 SW5       30.03R
GLENWOOD       PTCLDY    61  21  21 NW3       30.05S
APPLETON       CLEAR     61  16  17 NW5       30.04S
BENSON         CLEAR     55  21  26 CALM      30.04S
ORTONVILLE     CLEAR     57  18  21 N5        30.05R
MADISON        CLEAR     57  12  17 N6        30.05R
WILLMAR        FAIR      57  25  28 N5        30.05S HAZE
$$
MNZ033>034-036-042>043-049>051-058-059-180300-
   Central Minnesota

CITY           SKY/WX    TMP DP  RH WIND       PRES   REMARKS
ST CLOUD       PTCLDY    60  23  24 NW6       30.03R
SAUK CENTRE    FAIR      56  25  30 CALM      30.05S
PAYNESVILLE    CLEAR     55  24  30 CALM      30.05S
AITKIN         PTCLDY    55  18  22 CALM      30.00S
PINE RIVER     PTCLDY    54  28  37 CALM      30.05R
BRAINERD       PTCLDY    59  23  25 SW3       30.03R
STAPLES        MOCLDY    57  19  23 SW5       30.03R
LONG PRAIRIE   FAIR      54  32  43 CALM      30.05R
LITTLE FALLS   MOCLDY    54  23  30 CALM      30.04S
LITCHFIELD     CLEAR     61  21  21 NW7       30.05R
BUFFALO        CLEAR     62  25  24 NW3       30.04R
MAPLE LAKE     CLEAR     55  32  40 W3        30.04S
$$
MNZ037-044-045-052-053-180300-
   East Central Minnesota

CITY           SKY/WX    TMP DP  RH WIND       PRES   REMARKS
PRINCETON      PTCLDY    57  30  35 CALM      30.03R
MORA           PTCLDY    55  30  38 CALM      30.04R
CAMBRIDGE      FAIR      61  37  41 CALM      30.01R
RUSH CITY      PTCLDY    57  31  37 CALM      30.02R
MOOSE LAKE     MOCLDY    55  27  33 CALM      30.00R
HINCKLEY       FAIR      61  28  29 W3        30.01S
CLOQUET        CLEAR     59  18  20 W3        30.00S
MCGREGOR       CLEAR     59  28  31 CALM      30.02R
$$
MNZ071>073-080-081-089-090-097-098-180300-
   Southwest Minnesota

CITY           SKY/WX    TMP DP  RH WIND       PRES   REMARKS
MONTEVIDEO     CLEAR     61  21  21 CALM      30.05R
GRANITE FALLS  PTCLDY    60  20  21 NW5       30.06R
CANBY          PTCLDY    60  19  19 CALM      30.07R
MARSHALL       PTCLDY    63  16  16 N5        30.06R
REDWOOD FALLS  PTCLDY    64  23  21 NW3       30.03R
OLIVIA         PTCLDY    59  19  21 N5        30.04R
PIPESTONE      MOCLDY    61  21  21 NE5       30.06R
WINDOM         PTCLDY    57  27  30 N8        30.05R
WORTHINGTON    MOCLDY    64  28  25 N8        30.05R
JACKSON        PTCLDY    63  30  29 VRB6      30.05R
TRACY          PTCLDY    62  21  21 N5        30.06R
SLAYTON        PTCLDY    61  21  21 CALM      30.07R
$$
MNZ065>067-074>077-082>085-091>093-180300-
   South Central Minnesota

CITY           SKY/WX    TMP DP  RH WIND       PRES   REMARKS
MANKATO        MOCLDY    64  34  32 N8        30.03R
NEW ULM        PTCLDY    64  25  22 N5        30.03R
ST JAMES       PTCLDY    63  32  31 NW3       30.05R
FAIRMONT       MOCLDY    64  36  34 CALM      30.03R
GLENCOE        PTCLDY    64  32  30 CALM      30.02S
FARIBAULT      MOCLDY    64  37  36 N3        30.03R
OWATONNA       MOCLDY    64  37  36 CALM      30.03R
ALBERT LEA     MOCLDY    64  43  45 CALM      30.03R
$$
MNZ078>079-086>088-094>096-180300-
   Southeast Minnesota

CITY           SKY/WX    TMP DP  RH WIND       PRES   REMARKS
ROCHESTER      PTCLDY    65  43  44 N6        30.03R
RED WING       PTCLDY    59  37  44 CALM      30.01R
STANTON        MOCLDY    62  34  36 CALM      30.01R HAZE
DODGE CENTER   MOCLDY    64  43  45 N6        30.04R
WINONA         PTCLDY    70  46  43 CALM      30.00R
AUSTIN         MOCLDY    64  45  48 N3        30.03R
PRESTON        MOCLDY    65  43  43 NW3       30.03R
$$
ABBREVIATIONS USED IN REMARKS
   TC - TEMPERATURES IN CELSIUS
  WCI - WIND CHILL INDEX
   HX - HEAT INDEX
  VSB - VISIBILITY
$$


USA.gov is the U.S. government's official web portal to all federal, state and local government web resources and services.